This is the latest recevied weather packets stored in our database for station/object N9DMT-13. If no packets are shown the sender has not sent any weather packets the latest 10 day(s).
| Time | Temp. | Humidity | Pressure | Rain* | Wind** | Luminosity | Snow |
|---|---|---|---|---|---|---|---|
| 1777657375 | 10° C | 40% | 984.8 hPa | 0 mm | - | - | - |
| 1777657074 | 10° C | 41% | 985 hPa | 0 mm | - | - | - |
| 1777656773 | 10° C | 44% | 984.9 hPa | 0 mm | - | - | - |
| 1777656472 | 10° C | 43% | 984.9 hPa | 0 mm | - | - | - |
| 1777656171 | 10.56° C | 42% | 984.9 hPa | 0 mm | - | - | - |
| 1777655871 | 10° C | 44% | 985.2 hPa | 0 mm | - | - | - |
| 1777655570 | 10° C | 43% | 985.2 hPa | 0 mm | - | - | - |
| 1777655269 | 10.56° C | 43% | 984.9 hPa | 0 mm | - | - | - |
| 1777654968 | 9.44° C | 44% | 985.2 hPa | 0 mm | - | - | - |
| 1777654668 | 9.44° C | 44% | 985.1 hPa | 0 mm | - | - | - |
| 1777654367 | 10° C | 44% | 985.1 hPa | 0 mm | - | - | - |
| 1777654066 | 10.56° C | 43% | 985 hPa | 0 mm | - | - | - |
| 1777653765 | 11.11° C | 46% | 985.1 hPa | 0 mm | - | - | - |
| 1777653465 | 11.11° C | 42% | 984.8 hPa | 0 mm | - | - | - |
| 1777653164 | 10.56° C | 44% | 985.2 hPa | 0 mm | - | - | - |
| 1777652863 | 9.44° C | 45% | 985 hPa | 0 mm | - | - | - |
| 1777652562 | 9.44° C | 45% | 985.2 hPa | 0 mm | - | - | - |
| 1777652261 | 9.44° C | 45% | 985.1 hPa | 0 mm | - | - | - |
| 1777651961 | 9.44° C | 46% | 985.3 hPa | 0 mm | - | - | - |
| 1777651660 | 9.44° C | 45% | 985.1 hPa | 0 mm | - | - | - |
| 1777651359 | 9.44° C | 45% | 985.3 hPa | 0 mm | - | - | - |
| 1777651059 | 9.44° C | 45% | 985.3 hPa | 0 mm | - | - | - |
| 1777650758 | 9.44° C | 48% | 985.2 hPa | 0 mm | - | - | - |
| 1777650457 | 10.56° C | 46% | 985.2 hPa | 0 mm | - | - | - |
| 1777650156 | 10.56° C | 50% | 985.2 hPa | 0 mm | - | - | - |
* Rain latest hour (hover to see other rain measurements)
** Current wind speed in m/s (hover to see current wind gust speed)